Location: Newark
(33.6333°S, 78.8500°W)
Time: 00:43:02
(UTC+00:00)

Tiros 1 - Pass Details

Date: 18 October 2019
Orbit: 630 x 664 km, 48.4° (Epoch: 17 November)

Event Time Altitude Azimuth Distance (km) Brightness Sun altitude
Rises 19:31:35 0° 289° (WNW) 2,938 11.2 47.9°
Reaches altitude 10° 19:34:02 10° 281° (W) 2,029 10.6 47.5°
Maximum altitude 19:38:26 40° 211° (SSW) 951 8.6 46.6°
Drops below altitude 10° 19:42:50 10° 141° (SE) 2,030 9.4 45.8°
Sets 19:45:17 0° 133° (SE) 2,941 10.1 45.3°
